Voltar ao catálogo

CZ-6A DEB

AtivoPO
NORAD 60880·DEBRIS·🇨🇳 China

Lançado Aug 6, 2024 de Taiyuan Satellite Launch Center

Loading…

Próximas Passagens (próximas 24 horas)

TLE

AtualizadoSource: Space-Track

Época: Sep 14, 2026, 00:09 UTC

1 60880U 24140KK  26257.00654448  .00002782  00000-0  40675-3 0  9990
2 60880  89.1068 268.9698 0109593 268.7508  90.1153 14.71377751110685

Acompanhe CZ-6A DEB em tempo real com AllMySat

Download on the App Store